CW0060 Weather Reports


time (UTC)temp
C
wind
direction
speed
KPH
gust
KPH
rain 1hr
cm
rain 24hr
cm
rain mn
cm
humidity
%
barometer
mb
20191020085207 14 104 8.0 14.5 0.00 0.48 0.25 92 1009.2
20191020084706 13 90 8.0 14.5 0.00 0.48 0.25 94 1009.1
20191020084206 13 105 6.4 11.3 0.00 0.48 0.25 96 1009.1
20191020083705 12 92 4.8 12.9 0.00 0.48 0.25 96 1009.1
20191020083205 12 100 4.8 12.9 0.00 0.48 0.25 96 1009.1
20191020082707 12 74 3.2 12.9 0.00 0.48 0.25 96 1009.0
20191020082206 12 108 6.4 12.9 0.00 0.48 0.25 96 1009.0
20191020081706 12 109 6.4 11.3 0.00 0.51 0.25 96 1008.9
20191020081207 12 94 4.8 8.0 0.03 0.51 0.25 96 1009.0
20191020080706 12 85 3.2 3.2 0.03 0.51 0.25 96 1009.3
20191020080210 12 107 1.6 3.2 0.03 0.51 0.25 96 1009.4
20191020075707 12 107 0.0 6.4 0.03 0.51 0.25 97 1009.4
20191020075206 12 107 0.0 6.4 0.03 0.51 0.25 97 1009.3
20191020074707 11 107 0.0 6.4 0.03 0.51 0.25 96 1009.1
20191020074206 11 107 0.0 6.4 0.03 0.51 0.25 96 1009.0
20191020073706 11 107 1.6 6.4 0.03 0.51 0.25 96 1009.1
20191020073207 11 107 1.6 6.4 0.03 0.51 0.25 96 1009.0
20191020072706 11 107 0.0 8.0 0.03 0.51 0.25 96 1009.1
20191020072207 11 107 1.6 8.0 0.03 0.51 0.25 96 1009.1
20191020071706 11 111 1.6 8.0 0.03 0.51 0.25 96 1008.7
20191020071207 11 103 0.0 3.2 0.00 0.48 0.23 96 1008.7
20191020070707 11 34 0.0 3.2 0.00 0.48 0.23 96 1008.9
20191020070206 11 34 0.0 4.8 0.00 0.48 0.23 96 1009.0
20191020065706 11 34 0.0 4.8 0.00 0.48 0.23 96 1009.1
20191020065207 11 34 0.0 4.8 0.00 0.48 0.23 96 1008.9
20191020064706 11 34 1.6 4.8 0.00 0.48 0.23 96 1008.9
20191020064207 11 15 1.6 4.8 0.00 0.51 0.23 96 1008.9
20191020063706 11 79 1.6 3.2 0.00 0.51 0.23 96 1008.6
20191020063206 11 115 0.0 6.4 0.00 0.51 0.23 96 1008.7
20191020062707 11 115 1.6 6.4 0.00 0.51 0.23 96 1008.7
20191020062207 11 115 3.2 9.7 0.00 0.51 0.23 96 1008.9
20191020061707 11 42 4.8 12.9 0.00 0.51 0.23 96 1008.6
20191020061205 11 283 6.4 12.9 0.00 0.51 0.23 96 1008.5
20191020060706 11 236 4.8 12.9 0.00 0.51 0.23 96 1008.3
20191020060207 11 93 1.6 6.4 0.00 0.51 0.23 96 1008.1
20191020055707 11 86 1.6 8.0 0.00 0.51 0.23 96 1008.3
20191020055207 11 86 3.2 8.0 0.00 0.51 0.23 96 1008.3
20191020054706 11 69 3.2 14.5 0.00 0.51 0.23 96 1008.3
20191020054207 11 277 4.8 14.5 0.00 0.51 0.23 96 1008.4
20191020053707 11 126 6.4 14.5 0.00 0.51 0.23 96 1008.0
20191020053207 11 105 6.4 11.3 0.00 0.53 0.23 96 1008.0
20191020052706 11 112 6.4 9.7 0.03 0.53 0.23 96 1008.0
20191020052207 11 92 4.8 8.0 0.05 0.53 0.23 96 1008.2
20191020051707 11 48 1.6 3.2 0.05 0.56 0.23 96 1008.1
20191020051207 11 346 1.6 8.0 0.05 0.56 0.23 96 1008.5
20191020050706 11 346 1.6 8.0 0.05 0.56 0.23 96 1008.4
20191020050207 11 107 1.6 8.0 0.05 0.56 0.23 96 1008.4
20191020045707 11 96 1.6 8.0 0.05 0.56 0.23 96 1008.3
20191020045207 11 90 1.6 8.0 0.05 0.56 0.23 96 1008.3
20191020044706 11 97 3.2 11.3 0.05 0.56 0.23 96 1008.3
20191020044206 11 102 6.4 11.3 0.05 0.56 0.23 96 1008.3
20191020043705 11 87 4.8 9.7 0.05 0.56 0.23 96 1008.3
20191020043207 11 98 3.2 6.4 0.05 0.56 0.23 96 1008.4
20191020042707 11 13 3.2 6.4 0.03 0.53 0.23 96 1008.3
20191020042207 11 271 1.6 6.4 0.00 0.51 0.20 96 1008.7
20191020041707 11 94 1.6 6.4 0.00 0.51 0.20 95 1008.4
20191020041206 11 94 1.6 6.4 0.00 0.51 0.20 95 1008.1
20191020040708 11 94 1.6 6.4 0.00 0.51 0.20 95 1008.0
20191020040206 11 94 1.6 6.4 0.00 0.51 0.20 95 1007.8
20191020035705 11 94 1.6 1.6 0.00 0.51 0.20 95 1007.8
20191020035206 11 309 0.0 0.0 0.00 0.51 0.20 95 1007.9
20191020034706 11 309 0.0 0.0 0.00 0.51 0.20 95 1007.9
20191020034207 11 309 0.0 0.0 0.00 0.51 0.20 95 1007.8
20191020033707 11 309 0.0 0.0 0.00 0.51 0.20 95 1007.7
20191020033206 11 309 0.0 6.4 0.00 0.51 0.20 95 1007.6
20191020032711 11 309 0.0 6.4 0.00 0.51 0.20 95 1007.8
20191020032206 11 309 1.6 6.4 0.00 0.51 0.20 95 1007.8
20191020031706 11 309 0.0 6.4 0.00 0.51 0.20 95 1007.8
20191020031207 11 28 0.0 8.0 0.00 0.51 0.20 95 1007.6
20191020030706 11 28 1.6 8.0 0.00 0.51 0.20 95 1007.5
20191020030207 11 28 3.2 9.7 0.00 0.51 0.20 95 1007.4
20191020025707 11 28 4.8 9.7 0.00 0.51 0.20 95 1007.4
20191020025207 11 105 4.8 8.0 0.03 0.51 0.20 95 1007.4
20191020024706 11 109 3.2 8.0 0.05 0.51 0.20 95 1007.6
20191020024206 11 88 0.0 0.0 0.08 0.51 0.20 95 1007.6
20191020023706 11 88 0.0 4.8 0.08 0.51 0.20 95 1007.6
20191020023207 11 88 0.0 4.8 0.10 0.51 0.20 95 1007.5
20191020022706 11 88 1.6 4.8 0.13 0.51 0.20 95 1007.7
20191020022206 11 88 1.6 4.8 0.13 0.51 0.20 95 1007.7
20191020021707 11 88 0.0 3.2 0.13 0.51 0.20 95 1007.7
20191020021207 11 88 0.0 3.2 0.13 0.51 0.20 95 1007.7
20191020020707 11 88 1.6 4.8 0.13 0.51 0.20 95 1007.8
20191020020207 11 88 1.6 6.4 0.15 0.51 0.20 95 1007.9
20191020015707 11 88 1.6 6.4 0.13 0.51 0.18 95 1008.1
20191020015206 11 88 3.2 6.4 0.10 0.48 0.15 95 1008.0
20191020014707 11 74 1.6 9.7 0.10 0.46 0.15 95 1007.8
20191020014207 11 126 1.6 9.7 0.05 0.43 0.13 95 1008.2
20191020013707 11 126 3.2 9.7 0.05 0.43 0.10 95 1008.3
20191020013207 11 117 3.2 8.0 0.05 0.43 0.10 94 1008.4
20191020012706 11 146 3.2 8.0 0.03 0.41 0.08 94 1008.4
20191020012207 11 154 3.2 9.7 0.03 0.41 0.08 94 1008.3
20191020011706 11 105 6.4 9.7 0.03 0.41 0.08 94 1008.0
20191020011207 11 98 4.8 9.7 0.03 0.41 0.08 94 1007.8
20191020010707 11 134 1.6 3.2 0.00 0.38 0.05 94 1007.9
20191020010206 11 136 0.0 0.0 0.00 0.38 0.05 94 1008.1
20191020005706 11 137 0.0 1.6 0.00 0.38 0.05 94 1008.5
20191020005206 11 137 0.0 1.6 0.00 0.38 0.05 94 1008.5
20191020004707 11 137 0.0 6.4 0.00 0.38 0.05 94 1008.5
20191020004207 11 137 0.0 6.4 0.00 0.38 0.05 94 1008.6
20191020003705 11 137 1.6 3.2 0.00 0.38 0.05 94 1008.4
20191020003207 11 137 0.0 3.2 0.00 0.38 0.05 94 1008.3
20191020002707 11 138 0.0 0.0 0.00 0.38 0.05 94 1008.2
20191020002206 11 138 0.0 0.0 0.00 0.38 0.05 94 1008.2
20191020001706 11 138 0.0 0.0 0.00 0.38 0.05 94 1008.4
20191020001207 12 138 0.0 0.0 0.00 0.38 0.05 94 1008.5
20191020000707 12 138 0.0 3.2 0.00 0.38 0.05 94 1008.6
20191020000206 12 138 0.0 6.4 0.00 0.38 0.05 94 1008.5
20191019235706 12 138 1.6 6.4 0.00 0.38 0.05 94 1008.4
20191019235206 12 138 1.6 6.4 0.00 0.38 0.05 94 1008.5
20191019234707 12 138 1.6 3.2 0.00 0.38 0.05 94 1008.5
20191019234207 12 145 0.0 3.2 0.00 0.38 0.05 94 1008.6
20191019233706 12 145 1.6 3.2 0.03 0.38 0.05 94 1008.9
20191019233206 12 145 1.6 3.2 0.03 0.38 0.05 94 1008.9
20191019232707 12 145 1.6 3.2 0.03 0.38 0.05 93 1008.7
20191019232207 12 186 0.0 0.0 0.03 0.38 0.05 93 1008.7
20191019231706 12 186 0.0 4.8 0.03 0.38 0.05 93 1008.7
20191019231207 12 186 0.0 6.4 0.03 0.38 0.05 93 1008.6
20191019230707 12 186 1.6 6.4 0.05 0.38 0.05 93 1008.7
20191019225707 12 186 1.6 6.4 0.05 0.38 0.05 93 1008.9
20191019225207 12 186 1.6 6.4 0.05 0.38 0.05 93 1008.9
20191019224706 12 186 1.6 8.0 0.05 0.38 0.05 93 1008.9
20191019224207 12 186 1.6 11.3 0.05 0.36 0.05 93 1009.0
20191019223706 12 186 3.2 11.3 0.05 0.36 0.05 93 1009.0
20191019223207 12 169 4.8 11.3 0.05 0.36 0.05 93 1008.9
20191019222707 12 198 4.8 11.3 0.05 0.36 0.05 93 1009.0
20191019222207 12 172 4.8 11.3 0.05 0.36 0.05 93 1009.0
20191019221707 12 144 4.8 12.9 0.05 0.36 0.05 93 1009.0
20191019221207 12 166 6.4 12.9 0.05 0.36 0.05 93 1009.0
20191019220706 12 173 6.4 16.1 0.05 0.33 0.03 93 1009.1
20191019220207 12 188 6.4 20.9 0.05 0.33 0.33 93 1009.2
20191019215707 12 205 8.0 20.9 0.05 0.33 0.33 93 1009.2
20191019215207 12 215 9.7 17.7 0.05 0.33 0.33 93 1009.2
20191019214706 12 189 9.7 16.1 0.05 0.33 0.33 93 1009.1
20191019214207 12 191 8.0 14.5 0.05 0.30 0.30 93 1009.0
20191019213705 12 173 8.0 19.3 0.05 0.30 0.30 93 1009.0
20191019213206 12 186 9.7 19.3 0.05 0.30 0.30 93 1008.9
20191019212706 12 161 11.3 19.3 0.05 0.30 0.30 93 1008.7
20191019212207 12 192 9.7 19.3 0.08 0.30 0.30 93 1008.7
20191019211706 12 141 6.4 11.3 0.08 0.30 0.30 93 1009.0
20191019211207 12 171 4.8 11.3 0.08 0.28 0.28 93 1009.0
20191019210707 12 171 4.8 11.3 0.10 0.28 0.28 93 1009.1
20191019210206 12 138 6.4 11.3 0.08 0.25 0.25 93 1009.0
20191019205706 12 149 6.4 12.9 0.10 0.25 0.25 93 1008.9
20191019205208 12 111 6.4 12.9 0.10 0.25 0.25 93 1008.7
20191019204706 12 121 6.4 12.9 0.10 0.25 0.25 92 1008.9
20191019204207 12 130 6.4 12.9 0.08 0.23 0.23 92 1008.9
20191019203707 12 137 6.4 17.7 0.10 0.23 0.23 92 1009.0
20191019203207 12 131 4.8 17.7 0.10 0.23 0.23 92 1008.9
20191019202706 12 158 6.4 17.7 0.10 0.23 0.23 92 1008.9
20191019202206 12 192 6.4 14.5 0.08 0.23 0.23 92 1009.0
20191019201710 12 157 8.0 14.5 0.05 0.20 0.20 91 1008.9
20191019201208 12 186 8.0 14.5 0.05 0.20 0.20 91 1008.9
20191019200708 12 146 6.4 12.9 0.05 0.18 0.18 91 1009.1
20191019200207 12 167 6.4 12.9 0.05 0.15 0.15 91 1009.2
20191019195706 12 198 4.8 12.9 0.05 0.15 0.15 91 1009.2
20191019195208 12 184 4.8 9.7 0.05 0.15 0.15 91 1009.0
20191019194706 12 155 6.4 11.3 0.05 0.15 0.15 91 1008.9
20191019194206 12 174 6.4 11.3 0.05 0.15 0.15 90 1008.7
20191019193710 12 161 6.4 11.3 0.03 0.15 0.15 90 1008.7
20191019193208 12 164 6.4 11.3 0.03 0.15 0.15 90 1008.6
20191019192707 12 156 4.8 9.7 0.03 0.15 0.15 90 1008.5
20191019192212 12 141 6.4 9.7 0.05 0.15 0.15 90 1008.5
20191019191708 12 144 8.0 9.7 0.05 0.15 0.15 90 1008.5
20191019191206 12 130 6.4 9.7 0.05 0.15 0.15 90 1008.4
20191019190706 12 142 6.4 9.7 0.05 0.15 0.15 90 1008.4
20191019190206 12 171 6.4 9.7 0.03 0.13 0.13 90 1008.4
20191019185706 12 115 4.8 9.7 0.03 0.13 0.13 89 1008.4
20191019185207 12 154 1.6 11.3 0.03 0.13 0.13 89 1008.5
20191019184707 12 175 3.2 11.3 0.03 0.13 0.13 89 1008.7
20191019184207 12 175 4.8 11.3 0.03 0.13 0.13 89 1008.9
20191019183705 12 165 3.2 8.0 0.03 0.13 0.13 89 1008.7
20191019183206 12 165 3.2 8.0 0.03 0.13 0.13 89 1008.7
20191019182707 12 149 3.2 8.0 0.00 0.10 0.10 88 1008.6
20191019182207 13 121 4.8 8.0 0.00 0.10 0.10 88 1008.4
20191019181708 13 121 3.2 8.0 0.00 0.10 0.10 88 1008.1
20191019181206 13 121 1.6 6.4 0.00 0.10 0.10 88 1008.1
20191019180707 13 121 1.6 8.0 0.00 0.10 0.10 87 1007.9
20191019180206 13 121 3.2 8.0 0.00 0.10 0.10 88 1007.9
20191019175707 13 121 3.2 12.9 0.00 0.10 0.10 88 1007.9
20191019175210 13 146 4.8 12.9 0.00 0.10 0.10 87 1008.0
20191019174706 13 191 6.4 14.5 0.00 0.10 0.10 87 1008.0
20191019174209 13 163 8.0 14.5 0.00 0.10 0.10 87 1007.9
20191019173706 13 168 8.0 14.5 0.00 0.10 0.10 87 1008.1
20191019173206 13 175 9.7 14.5 0.00 0.10 0.10 87 1008.2
20191019172707 13 191 8.0 14.5 0.00 0.10 0.10 87 1008.1
20191019172207 13 209 4.8 12.9 0.00 0.10 0.10 87 1008.1
20191019171707 13 215 4.8 11.3 0.00 0.10 0.10 86 1008.0
20191019171207 13 192 4.8 14.5 0.00 0.10 0.10 86 1008.0
20191019170707 13 157 4.8 14.5 0.00 0.10 0.10 86 1007.9
20191019170206 13 148 6.4 14.5 0.00 0.10 0.10 86 1007.8
20191019165706 13 127 6.4 11.3 0.00 0.10 0.10 86 1007.7
20191019165207 13 155 4.8 11.3 0.00 0.10 0.10 85 1007.9
20191019164706 13 109 4.8 9.7 0.00 0.10 0.10 85 1007.8
20191019164208 13 112 6.4 11.3 0.00 0.10 0.10 85 1007.8
20191019163713 13 184 6.4 11.3 0.00 0.10 0.10 84 1008.1
20191019163206 13 173 6.4 11.3 0.00 0.10 0.10 84 1008.1
20191019162706 13 90 4.8 11.3 0.00 0.10 0.10 84 1008.0
20191019162207 13 151 4.8 11.3 0.00 0.10 0.10 84 1008.0
20191019161706 13 155 6.4 11.3 0.00 0.10 0.10 83 1007.9
20191019161206 13 157 4.8 14.5 0.00 0.10 0.10 83 1008.0
20191019160707 13 156 6.4 14.5 0.00 0.10 0.10 83 1008.0
20191019160207 13 113 8.0 14.5 0.00 0.10 0.10 83 1007.9
20191019155707 13 138 8.0 14.5 0.00 0.10 0.10 82 1007.8
20191019155205 13 108 6.4 11.3 0.00 0.10 0.10 82 1007.9
20191019154706 13 127 4.8 9.7 0.00 0.10 0.10 82 1008.1
20191019154208 13 153 4.8 11.3 0.00 0.10 0.10 82 1008.1
20191019153707 13 186 4.8 11.3 0.00 0.10 0.10 82 1008.2
20191019153206 13 173 6.4 12.9 0.00 0.10 0.10 82 1008.3
20191019152706 13 205 6.4 16.1 0.00 0.10 0.10 82 1008.2
20191019152207 13 192 8.0 16.1 0.00 0.10 0.10 81 1008.2
20191019151707 13 207 6.4 16.1 0.00 0.10 0.10 82 1008.2
20191019151207 13 153 8.0 16.1 0.00 0.10 0.10 81 1008.2
20191019150707 13 192 8.0 16.1 0.00 0.10 0.10 81 1008.1
20191019150206 13 197 8.0 16.1 0.00 0.10 0.10 81 1008.2
20191019145707 13 217 6.4 12.9 0.00 0.10 0.10 81 1008.3
20191019145206 13 193 8.0 12.9 0.00 0.10 0.10 81 1008.4
20191019144708 13 204 8.0 12.9 0.00 0.10 0.10 81 1008.3
20191019144207 13 180 6.4 12.9 0.00 0.10 0.10 81 1008.4
20191019143706 13 188 4.8 12.9 0.00 0.10 0.10 81 1008.2
20191019143207 13 172 6.4 12.9 0.00 0.10 0.10 81 1008.2
20191019142707 13 165 6.4 12.9 0.00 0.10 0.10 81 1008.3
20191019142207 13 175 6.4 11.3 0.00 0.10 0.10 81 1008.4
20191019141706 14 171 6.4 11.3 0.00 0.10 0.10 80 1008.3
20191019141206 14 161 6.4 11.3 0.00 0.10 0.10 80 1008.4
20191019140707 14 192 6.4 11.3 0.00 0.10 0.10 80 1008.4
20191019140206 14 191 4.8 11.3 0.00 0.10 0.10 81 1008.3
20191019135706 14 171 4.8 9.7 0.00 0.10 0.10 81 1008.4
20191019135207 14 148 4.8 16.1 0.00 0.10 0.10 80 1008.3
20191019134707 14 185 6.4 16.1 0.00 0.10 0.10 79 1008.3
20191019134207 14 159 8.0 19.3 0.00 0.10 0.10 79 1008.3
20191019133706 14 191 9.7 19.3 0.00 0.10 0.10 80 1008.5
20191019133206 14 222 9.7 19.3 0.00 0.10 0.10 79 1008.6
20191019132708 14 208 8.0 14.5 0.00 0.10 0.10 80 1008.7
20191019132206 14 158 8.0 16.1 0.00 0.10 0.10 80 1008.7
20191019131706 14 165 8.0 16.1 0.00 0.10 0.10 79 1008.9
20191019131207 14 188 8.0 16.1 0.00 0.10 0.10 79 1008.7
20191019130708 14 156 8.0 16.1 0.00 0.10 0.10 81 1008.7
20191019130206 14 175 9.7 16.1 0.00 0.10 0.10 79 1008.9
20191019125706 14 187 8.0 16.1 0.00 0.10 0.10 79 1009.0
20191019125206 14 157 6.4 19.3 0.00 0.10 0.10 80 1009.0
20191019124707 14 150 8.0 19.3 0.00 0.10 0.10 81 1009.0
20191019124207 14 218 9.7 16.1 0.00 0.13 0.10 79 1009.1
20191019123707 14 199 9.7 19.3 0.00 0.15 0.10 80 1009.1
20191019123207 14 184 11.3 19.3 0.00 0.18 0.10 80 1009.2
20191019122710 14 227 11.3 19.3 0.00 0.23 0.10 80 1009.3
20191019122207 14 199 9.7 17.7 0.00 0.30 0.10 81 1009.2
20191019121707 14 156 9.7 17.7 0.00 0.33 0.10 82 1009.2
20191019121206 14 215 9.7 17.7 0.00 0.41 0.10 81 1009.1
20191019120707 14 169 8.0 14.5 0.00 0.43 0.10 82 1009.2
20191019120207 13 210 6.4 14.5 0.00 0.43 0.10 82 1009.2
20191019115706 13 207 8.0 16.1 0.00 0.43 0.10 83 1009.1
20191019115207 13 221 9.7 16.1 0.00 0.43 0.10 84 1009.1
20191019114706 13 184 8.0 16.1 0.00 0.43 0.10 84 1009.1
20191019114207 13 155 8.0 16.1 0.00 0.43 0.10 86 1009.2
20191019113706 13 179 9.7 16.1 0.00 0.46 0.10 86 1009.3
20191019113207 13 204 9.7 16.1 0.00 0.46 0.10 86 1009.3
20191019112706 13 180 8.0 16.1 0.00 0.46 0.10 86 1009.2
20191019112208 13 183 6.4 12.9 0.00 0.46 0.10 87 1009.2
20191019111709 13 161 6.4 11.3 0.00 0.46 0.10 89 1009.1
20191019111207 12 199 6.4 9.7 0.00 0.46 0.10 90 1009.0
20191019110707 12 163 6.4 11.3 0.00 0.46 0.10 90 1009.1
20191019110207 12 149 6.4 11.3 0.00 0.46 0.10 91 1009.1
20191019105706 12 141 6.4 9.7 0.00 0.46 0.10 91 1009.2
20191019105205 12 150 4.8 8.0 0.00 0.46 0.10 92 1009.2
20191019104706 12 139 4.8 8.0 0.00 0.46 0.10 92 1009.4
20191019104207 12 136 3.2 8.0 0.00 0.46 0.10 92 1009.4
20191019103706 12 154 3.2 11.3 0.00 0.46 0.10 93 1009.6
20191019103207 12 186 4.8 11.3 0.00 0.46 0.10 93 1009.6
20191019102705 12 186 4.8 9.7 0.00 0.46 0.10 93 1009.6
20191019102206 12 209 4.8 9.7 0.00 0.46 0.10 94 1009.7
20191019101707 12 208 4.8 9.7 0.00 0.46 0.10 94 1009.7
20191019101207 12 175 4.8 8.0 0.00 0.46 0.10 94 1009.6
20191019100707 11 153 4.8 8.0 0.00 0.46 0.10 95 1009.6
20191019100207 11 171 3.2 12.9 0.00 0.46 0.10 95 1009.5
20191019095709 11 152 4.8 12.9 0.00 0.46 0.10 95 1009.4
20191019095206 11 141 8.0 12.9 0.00 0.46 0.10 95 1009.4
20191019094706 11 140 8.0 12.9 0.00 0.46 0.10 96 1009.4
20191019094206 11 163 8.0 12.9 0.00 0.46 0.10 96 1009.6
20191019093707 11 133 6.4 12.9 0.00 0.46 0.10 96 1009.6
20191019093206 11 141 6.4 12.9 0.00 0.46 0.10 96 1009.6
20191019092706 11 163 6.4 12.9 0.00 0.46 0.10 96 1009.6
20191019092207 11 140 4.8 14.5 0.00 0.46 0.10 96 1009.4
20191019091707 11 138 3.2 16.1 0.03 0.46 0.10 96 1009.6
20191019091206 11 159 6.4 16.1 0.03 0.46 0.10 96 1009.6
20191019090706 11 173 8.0 17.7 0.03 0.46 0.10 96 1009.6
20191019090206 11 190 9.7 17.7 0.03 0.46 0.10 96 1009.4
20191019085706 11 159 9.7 17.7 0.03 0.46 0.10 96 1009.4